| time (UTC) | temp C | wind direction | speed KPH | gust KPH | rain 1hr cm | rain 24hr cm | rain mn cm | humidity % | barometer mb |
| 20260508111536 | 0 | 164 | 0.0 | 0.0 | 0.00 | 0.00 | 0.00 | 99 | 1018.8 |
| 20260508111032 | 0 | 164 | 0.0 | 0.0 | 0.00 | 0.00 | 0.00 | 99 | 1019.1 |
| 20260508110531 | -1 | 192 | 0.0 | 0.0 | 0.00 | 0.00 | 0.00 | 99 | 1019.0 |
| 20260508110026 | -1 | 211 | 0.0 | 0.0 | 0.00 | 0.00 | 0.00 | 99 | 1019.1 |
| 20260508105521 | -1 | 224 | 0.0 | 0.0 | 0.00 | 0.00 | 0.00 | 99 | 1018.8 |
| 20260508105019 | -1 | 125 | 0.0 | 0.0 | 0.00 | 0.00 | 0.00 | 99 | 1019.0 |
| 20260508104517 | -1 | 125 | 0.0 | 0.0 | 0.00 | 0.00 | 0.00 | 99 | 1019.0 |
| 20260508104013 | -1 | 125 | 0.0 | 0.0 | 0.00 | 0.00 | 0.00 | 99 | 1018.8 |
| 20260508103509 | -1 | 125 | 0.0 | 0.0 | 0.00 | 0.00 | 0.00 | 99 | 1018.5 |
| 20260508103007 | -1 | 124 | 0.0 | 0.0 | 0.00 | 0.00 | 0.00 | 99 | 1018.8 |
| 20260508102505 | -1 | 121 | 0.0 | 0.0 | 0.00 | 0.00 | 0.00 | 99 | 1018.8 |
| 20260508102002 | -1 | 121 | 0.0 | 0.0 | 0.00 | 0.00 | 0.00 | 99 | 1018.5 |
| 20260508101459 | -1 | 121 | 0.0 | 0.0 | 0.00 | 0.00 | 0.00 | 99 | 1018.8 |
| 20260508100956 | -1 | 121 | 0.0 | 0.0 | 0.00 | 0.00 | 0.00 | 99 | 1018.5 |
| 20260508100455 | -1 | 121 | 0.0 | 0.0 | 0.00 | 0.00 | 0.00 | 99 | 1018.5 |
| 20260508095950 | -1 | 121 | 0.0 | 0.0 | 0.00 | 0.00 | 0.00 | 99 | 1018.5 |
| 20260508095448 | -1 | 121 | 0.0 | 0.0 | 0.00 | 0.00 | 0.00 | 99 | 1018.6 |
| 20260508094945 | -1 | 121 | 0.0 | 0.0 | 0.00 | 0.00 | 0.00 | 99 | 1018.4 |
| 20260508094442 | -1 | 121 | 0.0 | 0.0 | 0.00 | 0.00 | 0.00 | 99 | 1018.3 |
| 20260508093938 | -1 | 120 | 0.0 | 0.0 | 0.00 | 0.00 | 0.00 | 99 | 1018.5 |
| 20260508093436 | -1 | 120 | 0.0 | 0.0 | 0.00 | 0.00 | 0.00 | 99 | 1018.4 |
| 20260508092934 | -1 | 120 | 0.0 | 0.0 | 0.00 | 0.00 | 0.00 | 99 | 1018.3 |
| 20260508092432 | -1 | 120 | 0.0 | 0.0 | 0.00 | 0.00 | 0.00 | 99 | 1018.5 |
| 20260508091930 | -1 | 120 | 0.0 | 0.0 | 0.00 | 0.00 | 0.00 | 99 | 1018.4 |
| 20260508091426 | -1 | 120 | 0.0 | 0.0 | 0.00 | 0.00 | 0.00 | 99 | 1018.1 |
| 20260508090923 | -1 | 120 | 0.0 | 0.0 | 0.00 | 0.00 | 0.00 | 99 | 1018.2 |
| 20260508090422 | -1 | 120 | 0.0 | 0.0 | 0.00 | 0.00 | 0.00 | 99 | 1018.4 |
| 20260508085917 | -1 | 120 | 0.0 | 0.0 | 0.00 | 0.00 | 0.00 | 99 | 1018.1 |
| 20260508085414 | -1 | 120 | 0.0 | 0.0 | 0.00 | 0.00 | 0.00 | 99 | 1018.0 |
| 20260508084911 | 0 | 120 | 0.0 | 0.0 | 0.00 | 0.00 | 0.00 | 99 | 1018.2 |
| 20260508084408 | 0 | 120 | 0.0 | 0.0 | 0.00 | 0.00 | 0.00 | 99 | 1018.0 |
| 20260508083906 | -1 | 120 | 0.0 | 0.0 | 0.00 | 0.00 | 0.00 | 99 | 1017.9 |
| 20260508083403 | -1 | 120 | 0.0 | 0.0 | 0.00 | 0.00 | 0.00 | 99 | 1018.1 |
| 20260508082902 | 0 | 120 | 0.0 | 0.0 | 0.00 | 0.00 | 0.00 | 99 | 1018.0 |
| 20260508082400 | 0 | 120 | 0.0 | 0.0 | 0.00 | 0.00 | 0.00 | 99 | 1018.1 |
| 20260508081857 | 0 | 120 | 0.0 | 0.0 | 0.00 | 0.00 | 0.00 | 99 | 1018.0 |
| 20260508081353 | 0 | 120 | 0.0 | 0.0 | 0.00 | 0.00 | 0.00 | 99 | 1018.0 |
| 20260508080850 | 0 | 120 | 0.0 | 0.0 | 0.00 | 0.00 | 0.00 | 99 | 1018.1 |
| 20260508080349 | 0 | 117 | 0.0 | 0.0 | 0.00 | 0.00 | 0.00 | 99 | 1018.2 |
| 20260508075845 | 0 | 117 | 0.0 | 0.0 | 0.00 | 0.00 | 0.00 | 98 | 1018.0 |
| 20260508075342 | 0 | 117 | 0.0 | 0.0 | 0.00 | 0.00 | 0.00 | 98 | 1018.1 |
| 20260508074840 | 0 | 117 | 0.0 | 0.0 | 0.00 | 0.00 | 0.00 | 98 | 1018.0 |
| 20260508074337 | 0 | 117 | 0.0 | 0.0 | 0.00 | 0.00 | 0.00 | 98 | 1017.9 |
| 20260508073834 | 0 | 117 | 0.0 | 0.0 | 0.00 | 0.00 | 0.00 | 98 | 1017.9 |
| 20260508073332 | 0 | 111 | 0.0 | 0.0 | 0.00 | 0.00 | 0.00 | 98 | 1017.8 |
| 20260508072828 | 0 | 111 | 0.0 | 0.0 | 0.00 | 0.00 | 0.00 | 98 | 1017.9 |
| 20260508072325 | 0 | 111 | 0.0 | 0.0 | 0.00 | 0.00 | 0.00 | 97 | 1017.7 |
| 20260508071822 | 0 | 111 | 0.0 | 0.0 | 0.00 | 0.00 | 0.00 | 97 | 1017.9 |
| 20260508071320 | 0 | 111 | 0.0 | 0.0 | 0.00 | 0.00 | 0.00 | 97 | 1017.8 |
| 20260508070817 | 0 | 111 | 0.0 | 0.0 | 0.00 | 0.00 | 0.00 | 96 | 1017.8 |
| 20260508070316 | 0 | 111 | 0.0 | 0.0 | 0.00 | 0.00 | 0.00 | 96 | 1017.7 |
| 20260508065813 | 1 | 111 | 0.0 | 0.0 | 0.00 | 0.00 | 0.00 | 96 | 1017.8 |
| 20260508065310 | 0 | 111 | 0.0 | 0.0 | 0.00 | 0.00 | 0.00 | 95 | 1017.8 |
| 20260508064808 | 1 | 111 | 0.0 | 0.0 | 0.00 | 0.00 | 0.00 | 95 | 1017.9 |
| 20260508064306 | 1 | 111 | 0.0 | 0.0 | 0.00 | 0.00 | 0.00 | 95 | 1017.9 |
| 20260508063803 | 1 | 111 | 0.0 | 0.0 | 0.00 | 0.00 | 0.00 | 94 | 1017.9 |
| 20260508063301 | 1 | 111 | 0.0 | 0.0 | 0.00 | 0.00 | 0.00 | 93 | 1018.1 |
| 20260508062758 | 1 | 111 | 0.0 | 0.0 | 0.00 | 0.00 | 0.00 | 93 | 1018.2 |
| 20260508062256 | 1 | 109 | 0.0 | 0.0 | 0.00 | 0.00 | 0.00 | 93 | 1018.0 |
| 20260508061752 | 1 | 115 | 0.0 | 0.0 | 0.00 | 0.00 | 0.00 | 92 | 1018.2 |
| 20260508061249 | 2 | 120 | 0.0 | 0.0 | 0.00 | 0.00 | 0.00 | 91 | 1018.1 |
| 20260508060746 | 2 | 129 | 0.0 | 0.0 | 0.00 | 0.00 | 0.00 | 90 | 1018.0 |
| 20260508060244 | 2 | 133 | 0.0 | 0.0 | 0.00 | 0.00 | 0.00 | 90 | 1018.0 |
| 20260508055739 | 2 | 144 | 0.0 | 0.0 | 0.00 | 0.00 | 0.00 | 89 | 1018.0 |
| 20260508055237 | 2 | 108 | 0.0 | 0.0 | 0.00 | 0.00 | 0.00 | 88 | 1018.0 |
| 20260508054733 | 2 | 120 | 0.0 | 0.0 | 0.00 | 0.00 | 0.00 | 87 | 1018.0 |
| 20260508054231 | 3 | 185 | 0.0 | 1.6 | 0.00 | 0.00 | 0.00 | 88 | 1017.8 |
| 20260508053728 | 3 | 197 | 0.0 | 0.0 | 0.00 | 0.00 | 0.00 | 88 | 1018.0 |
| 20260508053225 | 3 | 198 | 0.0 | 0.0 | 0.00 | 0.00 | 0.00 | 87 | 1017.9 |
| 20260508052722 | 3 | 198 | 0.0 | 0.0 | 0.00 | 0.00 | 0.00 | 86 | 1018.0 |
| 20260508052219 | 3 | 198 | 0.0 | 0.0 | 0.00 | 0.00 | 0.00 | 88 | 1018.0 |
| 20260508051715 | 3 | 198 | 0.0 | 0.0 | 0.00 | 0.00 | 0.00 | 86 | 1017.9 |
| 20260508051211 | 3 | 198 | 0.0 | 0.0 | 0.00 | 0.00 | 0.00 | 85 | 1017.5 |
| 20260508050708 | 3 | 198 | 0.0 | 1.6 | 0.00 | 0.00 | 0.00 | 87 | 1017.8 |
| 20260508050206 | 3 | 242 | 0.0 | 0.0 | 0.00 | 0.00 | 0.00 | 88 | 1017.8 |
| 20260508045706 | 3 | 242 | 0.0 | 0.0 | 0.00 | 0.00 | 0.00 | 87 | 1017.8 |
| 20260508045204 | 3 | 243 | 0.0 | 0.0 | 0.00 | 0.00 | 0.00 | 89 | 1017.8 |
| 20260508044701 | 3 | 245 | 0.0 | 0.0 | 0.00 | 0.00 | 0.00 | 89 | 1017.9 |
| 20260508044157 | 3 | 245 | 0.0 | 0.0 | 0.00 | 0.00 | 0.00 | 89 | 1017.5 |
| 20260508043653 | 3 | 245 | 0.0 | 0.0 | 0.00 | 0.00 | 0.00 | 89 | 1017.7 |
| 20260508043152 | 3 | 245 | 0.0 | 0.0 | 0.00 | 0.00 | 0.00 | 89 | 1017.5 |
| 20260508042648 | 3 | 245 | 0.0 | 0.0 | 0.00 | 0.00 | 0.00 | 87 | 1017.7 |
| 20260508042145 | 4 | 245 | 0.0 | 0.0 | 0.00 | 0.00 | 0.00 | 86 | 1017.7 |
| 20260508041641 | 4 | 245 | 0.0 | 0.0 | 0.00 | 0.00 | 0.00 | 84 | 1017.7 |
| 20260508041138 | 5 | 246 | 0.0 | 0.0 | 0.00 | 0.00 | 0.00 | 81 | 1017.5 |
| 20260508040635 | 5 | 245 | 0.0 | 0.0 | 0.00 | 0.00 | 0.00 | 79 | 1017.5 |
| 20260508040132 | 5 | 245 | 0.0 | 0.0 | 0.00 | 0.00 | 0.00 | 77 | 1017.3 |
| 20260508035629 | 5 | 245 | 0.0 | 0.0 | 0.00 | 0.00 | 0.00 | 77 | 1017.5 |
| 20260508035127 | 6 | 245 | 0.0 | 0.0 | 0.00 | 0.00 | 0.00 | 76 | 1017.4 |
| 20260508034624 | 6 | 260 | 0.0 | 4.8 | 0.00 | 0.00 | 0.00 | 74 | 1017.1 |
| 20260508034121 | 6 | 285 | 1.6 | 3.2 | 0.00 | 0.00 | 0.00 | 76 | 1017.2 |
| 20260508033618 | 6 | 237 | 1.6 | 4.8 | 0.00 | 0.00 | 0.00 | 73 | 1017.3 |
| 20260508033116 | 6 | 165 | 0.0 | 0.0 | 0.00 | 0.00 | 0.00 | 76 | 1017.3 |
| 20260508032612 | 6 | 251 | 0.0 | 3.2 | 0.00 | 0.00 | 0.00 | 74 | 1017.5 |
| 20260508032110 | 6 | 174 | 0.0 | 1.6 | 0.00 | 0.00 | 0.00 | 76 | 1017.3 |
| 20260508031607 | 6 | 179 | 0.0 | 4.8 | 0.00 | 0.00 | 0.00 | 75 | 1017.1 |
| 20260508031103 | 6 | 195 | 0.0 | 0.0 | 0.00 | 0.00 | 0.00 | 77 | 1017.3 |
| 20260508030559 | 6 | 162 | 0.0 | 1.6 | 0.00 | 0.00 | 0.00 | 79 | 1017.2 |
| 20260508030058 | 5 | 140 | 0.0 | 1.6 | 0.00 | 0.00 | 0.00 | 83 | 1017.0 |
| 20260508025553 | 6 | 198 | 0.0 | 1.6 | 0.00 | 0.00 | 0.00 | 81 | 1016.9 |
| 20260508025050 | 5 | 196 | 0.0 | 0.0 | 0.00 | 0.00 | 0.00 | 83 | 1017.0 |
| 20260508024546 | 6 | 185 | 0.0 | 0.0 | 0.00 | 0.00 | 0.00 | 81 | 1016.9 |
| 20260508024044 | 6 | 185 | 0.0 | 0.0 | 0.00 | 0.00 | 0.00 | 80 | 1017.1 |
| 20260508023540 | 6 | 185 | 0.0 | 0.0 | 0.00 | 0.00 | 0.00 | 78 | 1017.1 |
| 20260508023038 | 7 | 234 | 0.0 | 0.0 | 0.00 | 0.00 | 0.00 | 75 | 1017.0 |
| 20260508022533 | 7 | 137 | 1.6 | 3.2 | 0.00 | 0.00 | 0.00 | 75 | 1016.7 |
| 20260508022031 | 7 | 173 | 0.0 | 0.0 | 0.00 | 0.00 | 0.00 | 78 | 1016.7 |
| 20260508021526 | 7 | 169 | 0.0 | 0.0 | 0.00 | 0.00 | 0.00 | 80 | 1016.7 |
| 20260508021022 | 7 | 217 | 0.0 | 0.0 | 0.00 | 0.00 | 0.00 | 76 | 1016.5 |
| 20260508020520 | 7 | 319 | 1.6 | 3.2 | 0.00 | 0.00 | 0.00 | 74 | 1016.3 |
| 20260508020018 | 7 | 199 | 0.0 | 3.2 | 0.00 | 0.00 | 0.00 | 73 | 1016.5 |
| 20260508015515 | 7 | 251 | 1.6 | 3.2 | 0.00 | 0.00 | 0.00 | 75 | 1016.3 |
| 20260508015012 | 7 | 153 | 0.0 | 11.3 | 0.00 | 0.00 | 0.00 | 74 | 1016.5 |
| 20260508014508 | 7 | 189 | 0.0 | 4.8 | 0.00 | 0.00 | 0.00 | 75 | 1016.1 |
| 20260508014004 | 7 | 215 | 1.6 | 4.8 | 0.00 | 0.00 | 0.00 | 74 | 1016.3 |
| 20260508013500 | 8 | 193 | 0.0 | 4.8 | 0.00 | 0.00 | 0.00 | 74 | 1016.1 |
| 20260508012958 | 7 | 170 | 0.0 | 3.2 | 0.00 | 0.00 | 0.00 | 78 | 1016.0 |
| 20260508012455 | 7 | 175 | 0.0 | 1.6 | 0.00 | 0.00 | 0.00 | 81 | 1016.1 |
| 20260508011952 | 7 | 192 | 0.0 | 0.0 | 0.00 | 0.00 | 0.00 | 78 | 1015.9 |
| 20260508011450 | 8 | 172 | 0.0 | 1.6 | 0.00 | 0.00 | 0.00 | 75 | 1015.7 |
| 20260508010947 | 8 | 151 | 0.0 | 1.6 | 0.00 | 0.00 | 0.00 | 76 | 1015.7 |
| 20260508010444 | 8 | 171 | 0.0 | 0.0 | 0.00 | 0.00 | 0.00 | 74 | 1015.9 |
| 20260508005941 | 8 | 133 | 1.6 | 4.8 | 0.00 | 0.00 | 0.00 | 72 | 1015.7 |
| 20260508005438 | 8 | 224 | 0.0 | 1.6 | 0.00 | 0.00 | 0.00 | 71 | 1015.7 |
| 20260508004934 | 9 | 168 | 0.0 | 0.0 | 0.00 | 0.00 | 0.00 | 70 | 1015.6 |
| 20260508004431 | 9 | 233 | 0.0 | 4.8 | 0.00 | 0.00 | 0.00 | 70 | 1015.8 |
| 20260508003927 | 9 | 240 | 1.6 | 3.2 | 0.00 | 0.00 | 0.00 | 67 | 1015.7 |
| 20260508003424 | 10 | 242 | 3.2 | 4.8 | 0.00 | 0.00 | 0.00 | 66 | 1015.7 |
| 20260508002921 | 10 | 264 | 1.6 | 4.8 | 0.00 | 0.00 | 0.00 | 65 | 1015.7 |
| 20260508002418 | 10 | 246 | 3.2 | 9.7 | 0.00 | 0.00 | 0.00 | 63 | 1015.7 |
| 20260508001914 | 10 | 236 | 3.2 | 4.8 | 0.00 | 0.00 | 0.00 | 64 | 1015.5 |
| 20260508001410 | 10 | 243 | 3.2 | 3.2 | 0.00 | 0.00 | 0.00 | 64 | 1015.4 |
| 20260508000907 | 10 | 270 | 1.6 | 11.3 | 0.00 | 0.00 | 0.00 | 65 | 1015.5 |
| 20260508000404 | 10 | 271 | 3.2 | 4.8 | 0.00 | 0.00 | 0.00 | 63 | 1015.4 |
| 20260507235900 | 10 | 274 | 4.8 | 11.3 | 0.00 | 0.00 | 0.00 | 62 | 1015.2 |
| 20260507235357 | 11 | 287 | 4.8 | 11.3 | 0.00 | 0.00 | 0.00 | 61 | 1015.3 |
| 20260507234854 | 11 | 314 | 4.8 | 14.5 | 0.00 | 0.00 | 0.00 | 60 | 1015.4 |
| 20260507234351 | 11 | 302 | 11.3 | 16.1 | 0.00 | 0.00 | 0.00 | 60 | 1015.3 |
| 20260507233847 | 11 | 244 | 6.4 | 12.9 | 0.00 | 0.00 | 0.00 | 60 | 1015.3 |
| 20260507233345 | 11 | 222 | 4.8 | 11.3 | 0.00 | 0.00 | 0.00 | 61 | 1015.1 |
| 20260507232843 | 11 | 304 | 6.4 | 9.7 | 0.00 | 0.00 | 0.00 | 62 | 1015.2 |
| 20260507232339 | 11 | 291 | 3.2 | 6.4 | 0.00 | 0.00 | 0.00 | 62 | 1015.0 |
| 20260507231837 | 11 | 229 | 9.7 | 14.5 | 0.00 | 0.00 | 0.00 | 60 | 1015.2 |
| 20260507231333 | 12 | 290 | 6.4 | 14.5 | 0.00 | 0.00 | 0.00 | 60 | 1015.0 |
| 20260507230829 | 12 | 263 | 3.2 | 12.9 | 0.00 | 0.00 | 0.00 | 61 | 1015.2 |
| 20260507230327 | 12 | 331 | 11.3 | 16.1 | 0.00 | 0.00 | 0.00 | 60 | 1015.1 |
| 20260507225827 | 12 | 272 | 6.4 | 11.3 | 0.00 | 0.00 | 0.00 | 60 | 1015.0 |
| 20260507225323 | 12 | 328 | 4.8 | 14.5 | 0.00 | 0.00 | 0.00 | 61 | 1014.7 |
| 20260507224819 | 12 | 290 | 6.4 | 12.9 | 0.00 | 0.00 | 0.00 | 62 | 1015.0 |
| 20260507224316 | 12 | 293 | 4.8 | 4.8 | 0.00 | 0.00 | 0.00 | 62 | 1014.8 |
| 20260507223812 | 11 | 303 | 6.4 | 11.3 | 0.00 | 0.00 | 0.00 | 64 | 1014.8 |
| 20260507223308 | 12 | 318 | 4.8 | 9.7 | 0.00 | 0.00 | 0.00 | 64 | 1014.7 |
| 20260507222806 | 12 | 289 | 8.0 | 12.9 | 0.00 | 0.00 | 0.00 | 64 | 1014.7 |
| 20260507222305 | 13 | 224 | 9.7 | 14.5 | 0.00 | 0.00 | 0.00 | 59 | 1014.6 |
| 20260507221759 | 13 | 37 | 4.8 | 9.7 | 0.00 | 0.00 | 0.00 | 60 | 1014.4 |
| 20260507221255 | 13 | 295 | 6.4 | 12.9 | 0.00 | 0.00 | 0.00 | 61 | 1014.4 |
| 20260507220751 | 13 | 311 | 3.2 | 11.3 | 0.00 | 0.00 | 0.00 | 61 | 1014.4 |
| 20260507220250 | 12 | 307 | 4.8 | 17.7 | 0.00 | 0.00 | 0.00 | 63 | 1014.4 |
| 20260507215746 | 13 | 243 | 11.3 | 14.5 | 0.00 | 0.00 | 0.00 | 60 | 1014.2 |
| 20260507215244 | 13 | 250 | 4.8 | 11.3 | 0.00 | 0.00 | 0.00 | 60 | 1014.3 |
| 20260507214740 | 13 | 281 | 6.4 | 12.9 | 0.00 | 0.00 | 0.00 | 61 | 1014.4 |
| 20260507214238 | 13 | 297 | 4.8 | 14.5 | 0.00 | 0.00 | 0.00 | 59 | 1014.3 |
| 20260507213733 | 13 | 299 | 9.7 | 12.9 | 0.00 | 0.00 | 0.00 | 59 | 1014.2 |
| 20260507213230 | 13 | 269 | 3.2 | 6.4 | 0.00 | 0.00 | 0.00 | 61 | 1014.2 |
| 20260507212726 | 12 | 278 | 6.4 | 9.7 | 0.00 | 0.00 | 0.00 | 64 | 1014.3 |
| 20260507212223 | 12 | 256 | 1.6 | 11.3 | 0.00 | 0.00 | 0.00 | 66 | 1014.1 |
| 20260507211720 | 12 | 272 | 3.2 | 6.4 | 0.00 | 0.00 | 0.00 | 64 | 1013.9 |
| 20260507211215 | 13 | 262 | 9.7 | 22.5 | 0.00 | 0.00 | 0.00 | 62 | 1014.0 |
| 20260507210713 | 13 | 207 | 3.2 | 6.4 | 0.00 | 0.00 | 0.00 | 63 | 1013.8 |
| 20260507210210 | 13 | 255 | 3.2 | 14.5 | 0.00 | 0.00 | 0.00 | 64 | 1014.1 |
| 20260507205706 | 12 | 244 | 1.6 | 6.4 | 0.00 | 0.00 | 0.00 | 66 | 1014.1 |
| 20260507205203 | 11 | 287 | 6.4 | 9.7 | 0.00 | 0.00 | 0.00 | 66 | 1014.1 |
| 20260507204659 | 11 | 303 | 3.2 | 16.1 | 0.00 | 0.00 | 0.00 | 66 | 1013.9 |
| 20260507204157 | 13 | 275 | 4.8 | 12.9 | 0.00 | 0.00 | 0.00 | 64 | 1014.0 |
| 20260507203655 | 12 | 264 | 6.4 | 9.7 | 0.00 | 0.00 | 0.00 | 67 | 1013.8 |
| 20260507203152 | 12 | 303 | 6.4 | 11.3 | 0.00 | 0.00 | 0.00 | 66 | 1013.9 |
| 20260507202647 | 12 | 285 | 9.7 | 12.9 | 0.00 | 0.00 | 0.00 | 64 | 1014.0 |
| 20260507202144 | 12 | 193 | 4.8 | 6.4 | 0.00 | 0.00 | 0.00 | 68 | 1014.1 |
| 20260507201639 | 12 | 163 | 1.6 | 6.4 | 0.00 | 0.00 | 0.00 | 68 | 1014.0 |
| 20260507201136 | 12 | 326 | 6.4 | 9.7 | 0.00 | 0.00 | 0.00 | 64 | 1014.1 |
| 20260507200632 | 12 | 301 | 8.0 | 12.9 | 0.00 | 0.00 | 0.00 | 63 | 1013.9 |
| 20260507200128 | 12 | 351 | 3.2 | 9.7 | 0.00 | 0.00 | 0.00 | 68 | 1014.2 |
| 20260507195625 | 11 | 263 | 8.0 | 9.7 | 0.00 | 0.00 | 0.00 | 69 | 1014.4 |
| 20260507195123 | 11 | 304 | 1.6 | 4.8 | 0.00 | 0.00 | 0.00 | 71 | 1014.3 |
| 20260507194619 | 11 | 284 | 6.4 | 11.3 | 0.00 | 0.00 | 0.00 | 70 | 1014.5 |
| 20260507194114 | 11 | 258 | 9.7 | 12.9 | 0.00 | 0.00 | 0.00 | 69 | 1014.5 |
| 20260507193612 | 12 | 24 | 3.2 | 4.8 | 0.00 | 0.00 | 0.00 | 69 | 1014.4 |
| 20260507193109 | 11 | 308 | 1.6 | 6.4 | 0.00 | 0.00 | 0.00 | 69 | 1014.6 |
| 20260507192605 | 11 | 299 | 11.3 | 16.1 | 0.00 | 0.00 | 0.00 | 68 | 1014.4 |
| 20260507192102 | 11 | 276 | 3.2 | 3.2 | 0.00 | 0.00 | 0.00 | 71 | 1014.4 |
| 20260507191557 | 11 | 153 | 6.4 | 12.9 | 0.00 | 0.00 | 0.00 | 72 | 1014.5 |
| 20260507191055 | 11 | 276 | 4.8 | 9.7 | 0.00 | 0.00 | 0.00 | 74 | 1014.6 |
| 20260507190552 | 10 | 259 | 1.6 | 9.7 | 0.00 | 0.00 | 0.00 | 74 | 1014.7 |
| 20260507190051 | 10 | 294 | 3.2 | 9.7 | 0.00 | 0.00 | 0.00 | 74 | 1015.1 |
| 20260507185549 | 10 | 273 | 4.8 | 6.4 | 0.00 | 0.00 | 0.00 | 75 | 1015.0 |
| 20260507185045 | 10 | 305 | 3.2 | 9.7 | 0.00 | 0.00 | 0.00 | 73 | 1014.7 |
| 20260507184543 | 10 | 253 | 4.8 | 11.3 | 0.00 | 0.00 | 0.00 | 73 | 1015.2 |
| 20260507184041 | 10 | 199 | 9.7 | 14.5 | 0.00 | 0.00 | 0.00 | 73 | 1015.0 |
| 20260507183536 | 10 | 352 | 4.8 | 14.5 | 0.00 | 0.00 | 0.00 | 72 | 1015.0 |
| 20260507183034 | 11 | 272 | 12.9 | 14.5 | 0.00 | 0.00 | 0.00 | 70 | 1014.7 |
| 20260507182530 | 11 | 300 | 6.4 | 12.9 | 0.00 | 0.00 | 0.00 | 71 | 1014.8 |
| 20260507182026 | 11 | 244 | 6.4 | 12.9 | 0.00 | 0.00 | 0.00 | 68 | 1014.7 |
| 20260507181523 | 11 | 237 | 11.3 | 14.5 | 0.00 | 0.00 | 0.00 | 69 | 1014.5 |
| 20260507181019 | 10 | 250 | 3.2 | 6.4 | 0.00 | 0.00 | 0.00 | 70 | 1014.6 |
| 20260507180516 | 11 | 277 | 9.7 | 11.3 | 0.00 | 0.00 | 0.00 | 67 | 1015.0 |
| 20260507180013 | 11 | 311 | 9.7 | 11.3 | 0.00 | 0.00 | 0.00 | 67 | 1014.6 |
| 20260507175509 | 12 | 88 | 1.6 | 9.7 | 0.00 | 0.00 | 0.00 | 64 | 1014.7 |
| 20260507175007 | 12 | 245 | 4.8 | 12.9 | 0.00 | 0.00 | 0.00 | 64 | 1015.1 |
| 20260507174503 | 12 | 307 | 11.3 | 17.7 | 0.00 | 0.00 | 0.00 | 67 | 1015.0 |
| 20260507174001 | 12 | 279 | 6.4 | 11.3 | 0.00 | 0.00 | 0.00 | 62 | 1015.0 |
| 20260507173458 | 12 | 308 | 3.2 | 12.9 | 0.00 | 0.00 | 0.00 | 65 | 1015.0 |
| 20260507172955 | 11 | 161 | 1.6 | 6.4 | 0.00 | 0.00 | 0.00 | 68 | 1014.8 |
| 20260507172451 | 11 | 212 | 1.6 | 3.2 | 0.00 | 0.00 | 0.00 | 68 | 1015.0 |
| 20260507171948 | 10 | 200 | 6.4 | 11.3 | 0.00 | 0.00 | 0.00 | 67 | 1015.1 |
| 20260507171443 | 10 | 227 | 6.4 | 14.5 | 0.00 | 0.00 | 0.00 | 69 | 1014.8 |
| 20260507170941 | 10 | 172 | 6.4 | 16.1 | 0.00 | 0.00 | 0.00 | 67 | 1015.1 |
| 20260507170437 | 11 | 263 | 3.2 | 4.8 | 0.00 | 0.00 | 0.00 | 67 | 1015.2 |
| 20260507165934 | 10 | 131 | 3.2 | 11.3 | 0.00 | 0.00 | 0.00 | 69 | 1015.0 |
| 20260507165430 | 10 | 286 | 6.4 | 6.4 | 0.00 | 0.00 | 0.00 | 68 | 1015.0 |
| 20260507164926 | 10 | 215 | 3.2 | 11.3 | 0.00 | 0.00 | 0.00 | 70 | 1015.3 |
| 20260507164423 | 10 | 234 | 6.4 | 6.4 | 0.00 | 0.00 | 0.00 | 70 | 1015.4 |
| 20260507163920 | 10 | 346 | 1.6 | 6.4 | 0.00 | 0.00 | 0.00 | 67 | 1015.2 |
| 20260507163417 | 10 | 292 | 3.2 | 9.7 | 0.00 | 0.00 | 0.00 | 71 | 1015.0 |
| 20260507162914 | 11 | 233 | 3.2 | 4.8 | 0.00 | 0.00 | 0.00 | 66 | 1015.3 |
| 20260507162409 | 11 | 291 | 1.6 | 6.4 | 0.00 | 0.00 | 0.00 | 66 | 1015.2 |
| 20260507161907 | 11 | 280 | 4.8 | 4.8 | 0.00 | 0.00 | 0.00 | 67 | 1015.4 |
| 20260507161403 | 10 | 300 | 4.8 | 4.8 | 0.00 | 0.00 | 0.00 | 70 | 1015.4 |
| 20260507160900 | 10 | 282 | 8.0 | 11.3 | 0.00 | 0.00 | 0.00 | 70 | 1015.3 |
| 20260507160355 | 10 | 304 | 1.6 | 6.4 | 0.00 | 0.00 | 0.00 | 70 | 1015.4 |
| 20260507155852 | 10 | 320 | 0.0 | 3.2 | 0.00 | 0.00 | 0.00 | 71 | 1015.5 |
| 20260507155348 | 9 | 317 | 1.6 | 9.7 | 0.00 | 0.00 | 0.00 | 72 | 1015.4 |
| 20260507154845 | 10 | 244 | 3.2 | 4.8 | 0.00 | 0.00 | 0.00 | 75 | 1015.6 |
| 20260507154342 | 10 | 264 | 6.4 | 11.3 | 0.00 | 0.00 | 0.00 | 73 | 1015.5 |
| 20260507153839 | 10 | 317 | 4.8 | 6.4 | 0.00 | 0.00 | 0.00 | 73 | 1015.6 |
| 20260507153335 | 9 | 40 | 4.8 | 11.3 | 0.00 | 0.00 | 0.00 | 74 | 1015.6 |
| 20260507152832 | 9 | 276 | 9.7 | 12.9 | 0.00 | 0.00 | 0.00 | 74 | 1015.4 |
| 20260507152328 | 10 | 330 | 4.8 | 9.7 | 0.00 | 0.00 | 0.00 | 74 | 1015.5 |
| 20260507151825 | 9 | 339 | 3.2 | 9.7 | 0.00 | 0.00 | 0.00 | 76 | 1015.5 |
| 20260507151321 | 8 | 271 | 4.8 | 11.3 | 0.00 | 0.00 | 0.00 | 74 | 1015.5 |
| 20260507150818 | 8 | 313 | 3.2 | 4.8 | 0.00 | 0.00 | 0.00 | 77 | 1015.7 |
| 20260507150314 | 8 | 291 | 6.4 | 9.7 | 0.00 | 0.00 | 0.00 | 80 | 1015.6 |
| 20260507145810 | 8 | 263 | 1.6 | 11.3 | 0.00 | 0.00 | 0.00 | 79 | 1015.8 |
| 20260507145307 | 8 | 258 | 6.4 | 9.7 | 0.00 | 0.00 | 0.00 | 81 | 1015.7 |
| 20260507144804 | 8 | 244 | 0.0 | 6.4 | 0.00 | 0.00 | 0.00 | 81 | 1015.6 |
| 20260507144301 | 8 | 276 | 6.4 | 9.7 | 0.00 | 0.00 | 0.00 | 80 | 1015.6 |
| 20260507143758 | 8 | 263 | 4.8 | 6.4 | 0.00 | 0.00 | 0.00 | 80 | 1015.6 |
| 20260507143255 | 8 | 26 | 1.6 | 6.4 | 0.00 | 0.00 | 0.00 | 81 | 1015.5 |
| 20260507142751 | 8 | 297 | 4.8 | 6.4 | 0.00 | 0.00 | 0.00 | 81 | 1015.8 |
| 20260507142248 | 8 | 278 | 6.4 | 9.7 | 0.00 | 0.00 | 0.00 | 84 | 1015.8 |
| 20260507141744 | 8 | 284 | 3.2 | 9.7 | 0.00 | 0.00 | 0.00 | 86 | 1015.6 |
| 20260507141241 | 8 | 234 | 1.6 | 4.8 | 0.00 | 0.00 | 0.00 | 87 | 1015.9 |
| 20260507140737 | 7 | 331 | 4.8 | 6.4 | 0.00 | 0.00 | 0.00 | 88 | 1015.7 |
| 20260507140235 | 8 | 281 | 8.0 | 9.7 | 0.00 | 0.00 | 0.00 | 89 | 1015.9 |
| 20260507135732 | 7 | 297 | 3.2 | 4.8 | 0.00 | 0.00 | 0.00 | 90 | 1015.7 |
| 20260507135229 | 7 | 279 | 1.6 | 3.2 | 0.00 | 0.00 | 0.00 | 91 | 1015.8 |
| 20260507134725 | 7 | 299 | 1.6 | 4.8 | 0.00 | 0.00 | 0.00 | 91 | 1016.1 |
| 20260507134222 | 7 | 235 | 1.6 | 4.8 | 0.00 | 0.00 | 0.00 | 92 | 1016.0 |
| 20260507133718 | 7 | 251 | 1.6 | 4.8 | 0.00 | 0.00 | 0.00 | 92 | 1016.3 |
| 20260507133215 | 7 | 241 | 1.6 | 4.8 | 0.00 | 0.00 | 0.00 | 92 | 1016.3 |
| 20260507132712 | 7 | 281 | 3.2 | 6.4 | 0.00 | 0.00 | 0.00 | 92 | 1016.1 |
| 20260507132208 | 7 | 270 | 1.6 | 3.2 | 0.00 | 0.00 | 0.00 | 94 | 1016.3 |
| 20260507131705 | 7 | 267 | 1.6 | 3.2 | 0.00 | 0.00 | 0.00 | 93 | 1016.0 |
| 20260507131203 | 7 | 281 | 3.2 | 6.4 | 0.00 | 0.00 | 0.00 | 93 | 1016.3 |
| 20260507130659 | 7 | 274 | 0.0 | 4.8 | 0.00 | 0.00 | 0.00 | 95 | 1016.1 |
| 20260507130157 | 6 | 292 | 3.2 | 6.4 | 0.00 | 0.00 | 0.00 | 95 | 1016.1 |
| 20260507125656 | 6 | 295 | 1.6 | 3.2 | 0.00 | 0.00 | 0.00 | 96 | 1016.0 |
| 20260507125153 | 6 | 296 | 3.2 | 4.8 | 0.00 | 0.00 | 0.00 | 96 | 1016.3 |
| 20260507124649 | 6 | 229 | 0.0 | 1.6 | 0.00 | 0.00 | 0.00 | 97 | 1016.4 |
| 20260507124147 | 6 | 294 | 0.0 | 0.0 | 0.00 | 0.00 | 0.00 | 97 | 1016.4 |
| 20260507123645 | 6 | 295 | 1.6 | 3.2 | 0.00 | 0.00 | 0.00 | 97 | 1016.4 |
| 20260507123142 | 6 | 268 | 3.2 | 3.2 | 0.00 | 0.00 | 0.00 | 98 | 1016.4 |
| 20260507122637 | 6 | 255 | 1.6 | 3.2 | 0.00 | 0.00 | 0.00 | 98 | 1016.5 |
| 20260507122133 | 6 | 280 | 4.8 | 4.8 | 0.00 | 0.00 | 0.00 | 98 | 1016.3 |
| 20260507121629 | 6 | 300 | 1.6 | 3.2 | 0.00 | 0.00 | 0.00 | 99 | 1016.0 |
| 20260507121125 | 6 | 229 | 3.2 | 3.2 | 0.00 | 0.00 | 0.00 | 99 | 1015.9 |
| 20260507120621 | 6 | 274 | 3.2 | 4.8 | 0.00 | 0.00 | 0.00 | 99 | 1016.1 |
| 20260507120118 | 6 | 227 | 0.0 | 3.2 | 0.00 | 0.00 | 0.00 | 99 | 1015.9 |
| 20260507115615 | 6 | 264 | 0.0 | 3.2 | 0.00 | 0.00 | 0.00 | 99 | 1015.9 |
| 20260507115110 | 6 | 275 | 1.6 | 3.2 | 0.00 | 0.00 | 0.00 | 99 | 1015.9 |
| 20260507114606 | 6 | 252 | 1.6 | 4.8 | 0.00 | 0.00 | 0.00 | 99 | 1015.8 |
| 20260507114104 | 6 | 302 | 3.2 | 3.2 | 0.00 | 0.00 | 0.00 | 99 | 1015.9 |
| 20260507113601 | 6 | 249 | 1.6 | 1.6 | 0.00 | 0.00 | 0.00 | 99 | 1016.0 |
| 20260507113058 | 6 | 254 | 1.6 | 3.2 | 0.00 | 0.00 | 0.00 | 99 | 1015.8 |
| 20260507112556 | 6 | 255 | 1.6 | 3.2 | 0.00 | 0.00 | 0.00 | 99 | 1015.8 |
| 20260507112052 | 6 | 226 | 0.0 | 0.0 | 0.00 | 0.00 | 0.00 | 99 | 1015.9 |